Location: Wanzleben
(52.0609°N, 11.4408°E)
Time: 17:07:24
(UTC+00:00)

Envisat - Pass Details

Date: 26 November 2020
Orbit: 764 x 766 km, 98.1° (Epoch: 20 January)

Event Time Altitude Azimuth Distance (km) Brightness Sun altitude
Rises 16:22:07 0° 173° (S) 3,222 6.4 -10.7°
Reaches altitude 10° 16:24:27 10° 177° (S) 2,300 5.7 -11.0°
Maximum altitude 16:29:28 63° 258° (WSW) 857 3.6 -11.7°
Drops below altitude 10° 16:34:33 10° 340° (NNW) 2,318 5.5 -12.5°
Sets 16:36:54 0° 344° (NNW) 3,249 6.2 -12.8°
